Sarasota, FL

8:25 AM EST on December 15, 2019 (GMT -0500)
Sarasota-bradenton

Weather History for KSRQ - October, 2019

Change the Weather History Date:

Sunday, October 6, 2019

  Actual Average Record
Temperature  
Mean Temperature 83 °F 79 °F  
Max Temperature 93 °F 87 °F 95 °F (1989)
Min Temperature 73 °F 71 °F 57 °F (1913)
Degree Days  
Heating Degree Days 0 0  
Month to date heating degree days 0 0  
Since 1 July heating degree days 0 0  
Cooling Degree Days 18 14  
Month to date cooling degree days 114 86  
Year to date cooling degree days 3571 2875  
Growing Degree Days 33 (Base 50)    
Moisture  
Dew Point 72 °F    
Average Humidity 74    
Maximum Humidity 93    
Minimum Humidity 50    
Precipitation  
Precipitation T in 0.12 in 1.32 in (1923)
Month to date precipitation T 0.78  
Year to date precipitation 43.38 46.21  
Sea Level Pressure  
Sea Level Pressure 29.95 in    
Wind  
Wind Speed 10 mph ()    
Max Wind Speed 22 mph    
Max Gust Speed 29 mph    
Visibility 10.0 miles    
Events Thunderstorm    
T = Trace of Precipitation, MM = Missing Value Source: Averaged Metar Reports

Daily Weather History Graph

Daily Weather History Graph

Search for Another Location

Airport or City:

Astronomy

Oct. 06, 2019 Rise Set
Actual Time 7:25 AM EDT 7:11 PM EDT
Civil Twilight 7:01 AM EDT 7:34 PM EDT
Nautical Twilight 6:34 AM EDT 8:01 PM EDT
Astronomical Twilight 6:07 AM EDT 8:28 PM EDT
Moon 3:10 PM EDT (10/6) 1:01 AM EDT (10/6)
Length of Visible Light 12h 32m
Length of Day
11h 45m
First Quarter, 59% of the Moon is Illuminated
Oct 6
First Quarter
Oct 13
Full
Oct 21
Last Quarter
Oct 27
New
Nov 4
First Quarter

Hourly Weather History & Observations

Time (EDT) Temp. Heat Index Dew Point Humidity Pressure Visibility Wind Dir Wind Speed Gust Speed Precip Events Conditions
12:53 AM 78.1 °F - 72.0 °F 81% 29.96 in 10.0 mi ENE 9.2 mph - N/A   Clear
1:53 AM 77.0 °F - 72.0 °F 84% 29.95 in 10.0 mi East 8.1 mph - N/A   Clear
2:53 AM 75.9 °F - 72.0 °F 87% 29.95 in 10.0 mi East 8.1 mph - N/A   Clear
3:53 AM 75.9 °F - 72.0 °F 87% 29.94 in 10.0 mi ENE 6.9 mph - N/A   Clear
4:53 AM 75.0 °F - 72.0 °F 90% 29.94 in 10.0 mi ENE 6.9 mph - N/A   Clear
5:53 AM 75.0 °F - 71.1 °F 87% 29.94 in 10.0 mi NE 8.1 mph - N/A   Clear
6:53 AM 73.9 °F - 71.1 °F 91% 29.95 in 10.0 mi ENE 6.9 mph - N/A   Clear
7:53 AM 75.0 °F - 71.1 °F 87% 29.97 in 10.0 mi ENE 6.9 mph - N/A   Partly Cloudy
8:53 AM 79.0 °F - 72.0 °F 79% 29.98 in 10.0 mi ENE 9.2 mph - N/A   Clear
9:53 AM 82.0 °F 86.7 °F 72.0 °F 71% 29.98 in 10.0 mi East 13.8 mph - N/A   Clear
10:53 AM 84.9 °F 90.1 °F 71.1 °F 63% 29.98 in 10.0 mi East 15.0 mph 21.9 mph N/A   Partly Cloudy
11:53 AM 87.1 °F 93.6 °F 72.0 °F 61% 29.98 in 10.0 mi East 12.7 mph - N/A   Mostly Cloudy
12:53 PM 89.1 °F 95.0 °F 71.1 °F 55% 29.96 in 10.0 mi ESE 12.7 mph - N/A   Scattered Clouds
1:53 PM 91.9 °F 98.4 °F 71.1 °F 50% 29.94 in 10.0 mi ESE 12.7 mph - N/A   Scattered Clouds
2:53 PM 87.1 °F 94.5 °F 73.0 °F 63% 29.92 in 10.0 mi NE 16.1 mph 26.5 mph N/A   Scattered Clouds
3:53 PM 90.0 °F 97.9 °F 73.0 °F 57% 29.90 in 10.0 mi East 16.1 mph - N/A   Scattered Clouds
4:46 PM 86.0 °F 93.0 °F 73.0 °F 65% 29.93 in 10.0 mi ESE 18.4 mph - 0.00 in Thunderstorm Thunderstorm
4:53 PM 82.0 °F 86.7 °F 72.0 °F 71% 29.93 in 10.0 mi SE 17.3 mph - 0.00 in Thunderstorm Thunderstorm
4:55 PM 82.0 °F 86.7 °F 72.0 °F 71% 29.93 in 10.0 mi SE 18.4 mph - N/A   Overcast
5:53 PM 82.9 °F 87.5 °F 71.1 °F 67% 29.92 in 10.0 mi East 16.1 mph 23.0 mph N/A   Mostly Cloudy
6:53 PM 82.0 °F 86.3 °F 71.1 °F 69% 29.91 in 10.0 mi East 15.0 mph - 0.00 in   Clear
7:53 PM 81.0 °F 84.9 °F 71.1 °F 72% 29.93 in 10.0 mi ENE 10.4 mph - N/A   Clear
8:53 PM 81.0 °F 85.2 °F 72.0 °F 74% 29.94 in 10.0 mi East 11.5 mph - N/A   Clear
9:53 PM 80.1 °F 84.2 °F 73.0 °F 79% 29.94 in 10.0 mi ENE 9.2 mph - N/A   Clear
10:53 PM 80.1 °F 83.8 °F 72.0 °F 76% 29.95 in 10.0 mi ENE 8.1 mph - N/A   Partly Cloudy
11:05 PM 80.1 °F 83.8 °F 72.0 °F 76% 29.95 in 10.0 mi ENE 10.4 mph - N/A   Mostly Cloudy
11:30 PM 80.1 °F 84.2 °F 73.0 °F 79% 29.95 in 10.0 mi ENE 8.1 mph - N/A   Scattered Clouds
11:53 PM 79.0 °F - 73.0 °F 82% 29.94 in 10.0 mi ENE 11.5 mph - N/A   Clear